Home   Weather   Honningsvåg   Past weeks

Flag for Norway Past Weather in Honningsvåg, Norway — Yesterday and Last 2 Weeks

Now
38 °F

Chilly.


Feels Like: 35 °F
Forecast: 35 / 39 °F
Wind: 3 mph from East

Location: Fruholmen Fyr

Current Time: Apr 30, 2017 at 5:35:50 am

Latest Report: Apr 30, 2017 at 4:00 am


Visibility: N/A

Pressure: 30.47 "Hg

Humidity: 80%

Dew Point: 32 °F

Location of HonningsvågLocation

Past Weather in Honningsvåg — Graph

°F

Honningsvåg Temperature Yesterday

Maximum temperature yesterday: 40 °F (at 2:00 pm)
Minimum temperature yesterday: 36 °F (at 7:00 am)
Average temperature yesterday: 39 °F

High & Low Weather Summary for the Past Weeks

 TemperatureHumidityPressure
High40 °F (Apr 29, 2:00 pm)93% (Apr 18, 3:00 am)30.51 "Hg (Apr 18, 3:00 am)
Low26 °F (Apr 16, 3:00 pm)47% (Apr 23, 1:00 pm)29.15 "Hg (Apr 21, 4:00 am)
Average34 °F71%29.90 "Hg
* Reported Apr 15 4:00 am — Apr 30 4:00 am, Honningsvåg, Weather by CustomWeather, © 2017

Note: Actual official high and low records may vary slightly from our data, if they occured in-between our weather recording intervals... More about our weather records

Advertising

Honningsvåg Weather History for the Previous 24 Hours

Scroll right to see more
 ConditionsComfort  
Time TempWeatherWind HumidityBarometerVisibility
4:00 am
Sun, Apr 30
38 °FChilly.3 mph80%30.47 "HgN/A
3:00 am36 °FChilly.3 mph80%30.48 "HgN/A
2:00 am37 °FChilly.3 mph75%30.49 "HgN/A
1:00 am38 °FChilly.3 mph71%30.50 "HgN/A
12:00 am37 °FChilly.3 mph73%30.51 "HgN/A
11:00 pm
Sat, Apr 29
37 °FChilly.3 mph75%30.51 "HgN/A
10:00 pm38 °FChilly.2 mph79%30.51 "HgN/A
9:00 pm39 °FChilly.1 mph76%30.50 "HgN/A
8:00 pm39 °FChilly.3 mph76%30.50 "HgN/A
7:00 pm40 °FChilly.5 mph75%30.50 "HgN/A
6:00 pm40 °FQuite cool.3 mph75%30.50 "HgN/A
5:00 pm40 °FQuite cool.5 mph74%30.51 "HgN/A
4:00 pm40 °FQuite cool.5 mph71%30.51 "HgN/A
3:00 pm40 °FQuite cool.6 mph70%30.51 "HgN/A
2:00 pm40 °FQuite cool.7 mph72%30.50 "HgN/A
1:00 pm40 °FChilly.8 mph73%30.50 "HgN/A
12:00 pm40 °FChilly.8 mph73%30.49 "HgN/A
11:00 am39 °FChilly.9 mph73%30.48 "HgN/A
10:00 am39 °FChilly.9 mph75%30.47 "HgN/A
9:00 am39 °FChilly.10 mph77%30.45 "HgN/A
8:00 am38 °FChilly.5 mph79%30.45 "HgN/A
7:00 am36 °FChilly.10 mph79%30.44 "HgN/A
6:00 am39 °FChilly.10 mph71%30.42 "HgN/A
5:00 am39 °FChilly.13 mph70%30.40 "HgN/A
Weather by CustomWeather, © 2017

See weather overviewHow to use our weather pages